Location: NCO
(38.4404°N, 77.1340°W)
Time: 20:00:19
(UTC-05:00)

ISS - Visible Passes

Search period start: 20 November 2017 00:00
Search period end: 30 November 2017 00:00
Orbit: 402 x 407 km, 51.6° (Epoch: 21 November)

Date Brightness Start Highest point End Pass type
(mag) Time Alt. Az. Time Alt. Az. Time Alt. Az.
20 Nov -1.4 05:35:29 11° SW 05:35:29 11° SW 05:35:57 10° SSW visible
24 Nov -1.5 18:41:45 10° SSW 18:42:43 16° S 18:42:43 16° S visible
25 Nov -1.7 17:50:45 10° SSE 17:52:24 13° SE 17:52:58 13° ESE visible
25 Nov -0.5 19:25:18 10° WSW 19:25:39 12° WSW 19:25:39 12° WSW visible
26 Nov -3.6 18:32:57 10° SW 18:35:49 61° S 18:35:49 61° S visible
27 Nov -2.9 17:40:57 10° SSW 17:43:57 33° SE 17:45:53 18° E visible
27 Nov -0.8 19:17:36 10° W 19:18:33 16° WNW 19:18:33 16° WNW visible
28 Nov -3.1 18:24:48 10° WSW 18:27:58 45° NW 18:28:32 40° N visible
29 Nov -3.9 17:32:18 10° SW 17:35:35 89° NNW 17:38:25 13° NE visible
29 Nov -0.8 19:10:20 10° WNW 19:11:05 13° NW 19:11:05 13° NW visible
